This is the latest recevied weather packets stored in our database for station/object KO6MEX-13. If no packets are shown the sender has not sent any weather packets the latest 10 day(s).
| Time | Temp. | Humidity | Pressure | Rain* | Wind** | Luminosity | Snow |
|---|---|---|---|---|---|---|---|
| 1777954620 | 13.33° C | 78% | 1019 hPa | 0 mm | - | 0 W/m² | - |
| 1777954318 | 12.78° C | 78% | 1019.1 hPa | 0 mm | - | 0 W/m² | - |
| 1777954015 | 12.78° C | 79% | 1018.8 hPa | 0 mm | - | 0 W/m² | - |
| 1777953712 | 12.78° C | 79% | 1018.6 hPa | 0 mm | - | 0 W/m² | - |
| 1777953408 | 12.78° C | 79% | 1018.7 hPa | 0 mm | - | 0 W/m² | - |
| 1777953104 | 12.78° C | 79% | 1018.8 hPa | 0 mm | - | 0 W/m² | - |
| 1777952801 | 12.78° C | 79% | 1018.5 hPa | 0 mm | - | 0 W/m² | - |
| 1777952499 | 12.78° C | 79% | 1018.8 hPa | 0 mm | - | 0 W/m² | - |
| 1777952194 | 12.78° C | 78% | 1018.6 hPa | 0 mm | - | 0 W/m² | - |
| 1777951893 | 13.33° C | 77% | 1018.5 hPa | 0 mm | - | 0 W/m² | - |
| 1777951591 | 13.33° C | 77% | 1018.6 hPa | 0 mm | - | 0 W/m² | - |
| 1777951287 | 13.33° C | 76% | 1018.5 hPa | 0 mm | - | 0 W/m² | - |
| 1777950984 | 13.89° C | 76% | 1018.4 hPa | 0 mm | - | 0 W/m² | - |
| 1777950680 | 13.89° C | 75% | 1018.3 hPa | 0 mm | - | 0 W/m² | - |
| 1777950377 | 13.89° C | 74% | 1018.1 hPa | 0 mm | - | 0 W/m² | - |
| 1777950073 | 14.44° C | 73% | 1018.4 hPa | 0 mm | - | 0 W/m² | - |
| 1777949769 | 14.44° C | 72% | 1018.2 hPa | 0 mm | - | 0 W/m² | - |
| 1777949468 | 15° C | 70% | 1018.2 hPa | 0 mm | - | 1 W/m² | - |
| 1777949165 | 15° C | 68% | 1018.4 hPa | 0 mm | - | 3 W/m² | - |
| 1777948862 | 15° C | 67% | 1018.1 hPa | 0 mm | - | 7 W/m² | - |
| 1777948559 | 15° C | 67% | 1018 hPa | 0 mm | - | 13 W/m² | - |
| 1777948257 | 15° C | 69% | 1018.2 hPa | 0 mm | - | 16 W/m² | - |
| 1777947954 | 15° C | 69% | 1018 hPa | 0 mm | - | 17 W/m² | - |
| 1777947651 | 15° C | 68% | 1017.9 hPa | 0 mm | - | 19 W/m² | - |
| 1777947348 | 15.56° C | 69% | 1018 hPa | 0 mm | - | 24 W/m² | - |
* Rain latest hour (hover to see other rain measurements)
** Current wind speed in m/s (hover to see current wind gust speed)